Messwerte Faith

Temperatur

Temperatur
°C
1573509600 15.00 15.00 -9.0
1573513200 16.00 16.00 -10.0
1573516800 17.00 17.00
1573520400 18.00 18.00 -12.0
1573524000 19.00 19.00 -16.0
1573527600 20.00 20.00 -16.0
1573531200 21.00 21.00 -17.0
1573534800 22.00 22.00 -17.0
1573538400 23.00 23.00 -17.0
1573542000 0.00 0.00 -17.0
1573545600 1.00 1.00 -18.0
1573549200 2.00 2.00 -17.0
1573552800 3.00 3.00 -17.0
1573556400 4.00 4.00 -16.0
1573560000 5.00 5.00 -16.0
1573563600 6.00 6.00 -16.0
1573567200 7.00 7.00 -16.0
1573570800 8.00 8.00 -14.0
1573574400 9.00 9.00 -11.0
1573578000 10.00 10.00
1573581600 11.00 11.00 0.0
1573585200 12.00 12.00 5.0
1573588800 13.00 13.00 6.0
1573592400 14.00 14.00 7.0

Aktuellste Messwerte

Temperatur
7.0 °C
Feuchtigkeit
45 %
Wind
7 km/hWindrichtung: West
Luftdruck
1010.0 hPa
Messzeit: 12. November 2019, 15.00Datenquelle: METAR

Weitere Messstationen in der Nähe

Messstation Temperatur Entfernung
Philip 8 °C 114 km
Hettinger 3 °C 119 km
Ellsworth Air Force Base 7 °C 130 km
Buffalo 7.0 °C 135 km
Rapid City 5 °C 137 km
Mobridge -2 °C 138 km
Pierre 0 °C 155 km

Wind

Windrichtung Böen Mittelwind
° km/h km/h
1573509600 15.00 14.00 - 15.00 320° 14
1573513200 16.00 15.00 - 16.00 350° 7
1573516800 17.00 16.00 - 17.00
1573520400 18.00 17.00 - 18.00 120° 11
1573524000 19.00 18.00 - 19.00 160° 14
1573527600 20.00 19.00 - 20.00 160° 22
1573531200 21.00 20.00 - 21.00 170° 25
1573534800 22.00 21.00 - 22.00 180° 22
1573538400 23.00 22.00 - 23.00 180° 25
1573542000 0.00 23.00 - 0.00 170° 29
1573545600 1.00 0.00 - 1.00 170° 25
1573549200 2.00 1.00 - 2.00 170° 29
1573552800 3.00 2.00 - 3.00 170° 36
1573556400 4.00 3.00 - 4.00 170° 32
1573560000 5.00 4.00 - 5.00 170° 32
1573563600 6.00 5.00 - 6.00 180° 36
1573567200 7.00 6.00 - 7.00 180° 32
1573570800 8.00 7.00 - 8.00 220° 14
1573574400 9.00 8.00 - 9.00 220° 11
1573578000 10.00 9.00 - 10.00
1573581600 11.00 10.00 - 11.00 230° 14
1573585200 12.00 11.00 - 12.00 270° 14
1573588800 13.00 12.00 - 13.00 270° 14
1573592400 14.00 13.00 - 14.00 270° 14

Ihre Wetterstation

Fehlt Ihre Wetterstation auf unserem Portal?

Schreiben Sie an network@meteonews.ch

Klima

Wann ist es am wärmsten? Wann regnet es am wenigsten? Unsere Klimadaten geben Auskunft.